Weather in Prachuap Khiri Khan

Thailand     11°49′30″N   99°46′39″E
temp.,
°C
wind,
m/s
gust,
m/s
humid.,
%
clouds,
%
prec.,
mm/h
press.,
hPa
HPBL,
m
15 may, sat
sat1501:00+27sw2379100 0.8 1007159
04:00+27wsw238149 0.0 1006178
07:00+27wsw227742 0.0 1007191
10:00+32sse225788 0.0 1008873
13:00+32se746054 0.0 1006817
16:00+32sse54598 0.0 1005855
19:00+29ssw347647 0.6 1006258
22:00+28sw3381100 0.5 1008165
16 may, sun
sun1601:00+27sw338319 0.5 1007172
04:00+26wsw338422 0.0 1006138
07:00+27sw237976 0.0 1008180
10:00+32s335984 0.0 1008858
13:00+33se645443 0.0 10061200
16:00+32sse546028 0.1 1004785
19:00+29s34735 0.4 1006191
22:00+29ssw34775 0.1 1008258
17 may, mon
mon1701:00+28sw348048 0.1 1007304
04:00+27wsw238476 0.4 1006212
07:00+28wsw227971 0.4 1007169
10:00+32s336054 0.1 1008881
13:00+33sse5456100 0.7 10071199
16:00+33sse545920 0.1 1005967
19:00+30ssw35725 0.3 1006303
22:00+28wsw23779 0.1 1008164
18 may, tue
tue1801:00+27w228091 0.1 1007107
04:00+27w228097 0.0 100689
07:00+28wsw227669 0.0 1008169
10:00+32ssw235671 0.0 1008987
13:00+33sse6455100 0.0 10061143
16:00+32s546086 0.1 10051031
19:00+29sw357664 0.8 1006253
22:00+27wnw358257 0.1 1008234
19 may, wed
wed1901:00+27w3583100 0.2 1007181
04:00+27w2384100 0.1 1006119
07:00+28w337887 0.8 1007153
10:00+32sw2255100 0.0 1008958
13:00+32sse2357100 0.1 10061110
16:00+32sw3459100 0.6 1005801
19:00+29w3574100 1.1 1006294
22:00+28w358084 0.0 1008205